Iron Mountain, MI

10:20 PM CST on January 19, 2018 (GMT -0600)
Ford

Weather History for KIMT - December, 2014

Change the Weather History Date:

Monday, December 15, 2014

  Actual Average Record
Temperature  
Mean Temperature 38 °F -  
Max Temperature 42 °F 29 °F 51 °F (1997)
Min Temperature 35 °F 12 °F -16 °F (1961)
Degree Days  
Heating Degree Days 26    
Moisture  
Dew Point 38 °F    
Average Humidity 97    
Maximum Humidity 100    
Minimum Humidity 92    
Precipitation  
Precipitation 0.00 in - - ()
Sea Level Pressure  
Sea Level Pressure 29.80 in    
Wind  
Wind Speed 5 mph (SSE)    
Max Wind Speed 7 mph    
Max Gust Speed -    
Visibility 1 miles    
Events Fog , Rain    
Averages and records for this station are not official NWS values.
T = Trace of Precipitation, MM = Missing Value Source: NWS Daily Summary

Daily Weather History Graph

Daily Weather History Graph

Search for Another Location

Airport or City:

Trip Planner

Search our weather history database for the weather conditions in past years. The results will help you decide how hot, cold, wet, or windy it might be!

Date:

Astronomy

Dec. 15, 2014 Rise Set
Actual Time 7:26 AM CST 4:08 PM CST
Civil Twilight 6:52 AM CST 4:42 PM CST
Nautical Twilight 6:14 AM CST 5:20 PM CST
Astronomical Twilight 5:38 AM CST 5:56 PM CST
Moon 12:26 AM CST (12/15) 12:24 PM CST (12/15)
Length of Visible Light 9h 50m
Length of Day
8h 41m
Last Quarter, 39% of the Moon is Illuminated
Dec 15
Last Quarter
Dec 21
New
Dec 28
First Quarter
Jan 4
Full
Jan 13
Last Quarter

Hourly Weather History & Observations

Time (CST) Temp. Windchill Dew Point Humidity Pressure Visibility Wind Dir Wind Speed Gust Speed Precip Events Conditions
12:54 AM 37.0 °F 34.5 °F 37.0 °F 100% 29.90 in 0.2 mi SE 3.5 mph - N/A Fog Fog
1:34 AM 37.0 °F 32.4 °F 37.0 °F 100% 29.86 in 0.2 mi SE 5.8 mph - N/A Fog Fog
1:54 AM 37.9 °F 34.4 °F 37.0 °F 97% 29.90 in 0.2 mi SE 4.6 mph - N/A Fog Fog
2:10 AM 37.9 °F 34.4 °F 37.0 °F 97% 29.87 in 0.2 mi SE 4.6 mph - N/A Fog Fog
2:28 AM 37.9 °F 33.5 °F 37.0 °F 97% 29.87 in 0.5 mi SE 5.8 mph - N/A Fog Fog
2:39 AM 37.0 °F 33.3 °F 37.0 °F 100% 29.87 in 0.2 mi SSE 4.6 mph - N/A Fog Fog
2:54 AM 37.0 °F 32.4 °F 37.0 °F 100% 29.90 in 0.2 mi SE 5.8 mph - N/A Fog Fog
3:54 AM 37.0 °F 33.3 °F 37.0 °F 100% 29.89 in 0.2 mi SE 4.6 mph - N/A Fog Fog
4:54 AM 37.9 °F 33.5 °F 37.0 °F 97% 29.88 in 0.5 mi SE 5.8 mph - N/A Fog Fog
5:34 AM 37.0 °F 31.6 °F 37.0 °F 100% 29.83 in 0.2 mi SSE 6.9 mph - N/A Fog Fog
5:54 AM 37.9 °F 32.7 °F 37.0 °F 97% 29.87 in 0.2 mi SSE 6.9 mph - N/A Fog Fog
6:23 AM 37.9 °F 32.7 °F 37.9 °F 100% 29.83 in 0.5 mi SSE 6.9 mph - N/A Fog Fog
6:54 AM 39.0 °F 34.8 °F 37.9 °F 96% 29.86 in 0.5 mi SE 5.8 mph - N/A Fog Fog
7:10 AM 37.9 °F 33.5 °F 37.0 °F 97% 29.82 in 0.2 mi SSE 5.8 mph - N/A Fog Fog
7:30 AM 37.9 °F 33.5 °F 37.9 °F 100% 29.82 in 0.5 mi SSE 5.8 mph - N/A Fog Fog
7:54 AM 37.9 °F 33.5 °F 37.0 °F 97% 29.85 in 0.2 mi SE 5.8 mph - N/A Fog Fog
8:23 AM 37.9 °F 34.4 °F 37.9 °F 100% 29.81 in 0.5 mi SE 4.6 mph - N/A Fog Fog
8:38 AM 37.9 °F 35.5 °F 37.9 °F 100% 29.81 in 0.2 mi SE 3.5 mph - N/A Fog Fog
8:54 AM 37.9 °F 34.4 °F 37.0 °F 97% 29.85 in 0.2 mi SE 4.6 mph - N/A Fog Fog
9:21 AM 39.0 °F 35.7 °F 37.9 °F 96% 29.81 in 0.5 mi SE 4.6 mph - N/A Fog Fog
9:46 AM 39.0 °F 34.0 °F 39.0 °F 100% 29.81 in 1.8 mi SSE 6.9 mph - N/A   Overcast
9:54 AM 39.9 °F 35.1 °F 39.0 °F 97% 29.84 in 2.0 mi SSE 6.9 mph - N/A   Overcast
10:09 AM 39.9 °F 35.8 °F 39.9 °F 100% 29.81 in 3.0 mi SSE 5.8 mph - N/A   Overcast
10:54 AM 41.0 °F 38.0 °F 39.9 °F 96% 29.83 in 3.0 mi SSE 4.6 mph - N/A   Overcast
11:51 AM 42.8 °F 38.6 °F 41.0 °F 93% 29.77 in 1.5 mi South 6.9 mph - N/A   Overcast
11:54 AM 42.1 °F 38.4 °F 41.0 °F 96% 29.81 in 1.0 mi South 5.8 mph - N/A   Overcast
12:01 PM 42.1 °F 38.4 °F 41.0 °F 96% 29.77 in 0.5 mi South 5.8 mph - N/A Fog Fog
12:24 PM 42.1 °F 39.2 °F 41.0 °F 96% 29.76 in 1.5 mi SSE 4.6 mph - N/A   Overcast
12:33 PM 42.1 °F 38.4 °F 41.0 °F 96% 29.76 in 3.0 mi South 5.8 mph - N/A   Overcast
12:54 PM 42.1 °F 39.2 °F 39.9 °F 92% 29.79 in 4.0 mi SSE 4.6 mph - N/A   Overcast
1:17 PM 41.0 °F - 39.9 °F 96% 29.75 in 2.0 mi Calm Calm - N/A   Overcast
1:24 PM 41.0 °F 38.0 °F 39.9 °F 96% 29.75 in 1.2 mi SE 4.6 mph - 0.00 in Rain Light Rain
1:34 PM 41.0 °F 39.0 °F 39.9 °F 96% 29.75 in 0.5 mi SE 3.5 mph - 0.00 in Fog Fog
1:54 PM 41.0 °F 38.0 °F 39.9 °F 96% 29.78 in 0.5 mi SE 4.6 mph - 0.00 in Fog Fog
2:04 PM 41.0 °F 38.0 °F 39.9 °F 96% 29.74 in 0.2 mi SE 4.6 mph - N/A Fog Fog
2:17 PM 41.0 °F 37.1 °F 39.9 °F 96% 29.74 in 0.5 mi SSE 5.8 mph - N/A Fog Fog
2:30 PM 41.0 °F 38.0 °F 39.9 °F 96% 29.74 in 0.2 mi SE 4.6 mph - N/A Fog Fog
2:54 PM 41.0 °F 38.0 °F 39.9 °F 96% 29.77 in 0.2 mi ESE 4.6 mph - N/A Fog Fog
3:07 PM 39.9 °F 35.1 °F 39.9 °F 100% 29.74 in 0.2 mi SSE 6.9 mph - N/A Fog Fog
3:54 PM 39.9 °F 36.7 °F 39.0 °F 97% 29.78 in 0.2 mi SE 4.6 mph - N/A Fog Fog
4:54 PM 39.9 °F 35.8 °F 39.0 °F 97% 29.79 in 0.2 mi SSE 5.8 mph - N/A Fog Fog
5:20 PM 39.0 °F 34.8 °F 39.0 °F 100% 29.75 in 0.2 mi South 5.8 mph - N/A Fog Fog
5:54 PM 39.0 °F - 37.9 °F 96% 29.78 in 0.2 mi Calm Calm - N/A Fog Fog
6:54 PM 39.0 °F - 37.9 °F 96% 29.79 in 0.2 mi Calm Calm - N/A Fog Fog
7:54 PM 37.0 °F - 37.0 °F 100% 29.78 in 0.2 mi Calm Calm - 0.00 in Fog Fog
8:54 PM 37.9 °F - 37.9 °F 100% 29.78 in 0.8 mi Calm Calm - 0.00 in Rain Light Rain
9:26 PM 37.9 °F - 37.9 °F 100% 29.74 in 0.2 mi Calm Calm - 0.00 in Fog Fog
9:54 PM 37.0 °F - 36.0 °F 96% 29.77 in 0.2 mi Calm Calm - 0.00 in Fog , Rain Light Rain
10:54 PM 36.0 °F - 35.1 °F 97% 29.77 in 0.5 mi Calm Calm - 0.00 in Fog , Rain Light Rain
11:32 PM 36.0 °F - 34.0 °F 93% 29.72 in 0.2 mi Calm Calm - 0.00 in Fog , Rain Light Rain
11:40 PM 35.1 °F - 35.1 °F 100% 29.72 in 0.5 mi Calm Calm - 0.00 in Fog , Rain Light Rain
11:54 PM 36.0 °F - 35.1 °F 97% 29.76 in 0.5 mi Calm Calm - 0.00 in Fog , Rain Light Rain